Regional Weather Roundup
Issued by NWS

Home | Current Version | Previous Version | Graphics & Text | Print | Product List | Glossary On
Versions: 1 2 3 4 5 6 7 8 9 10 11 12 13 14 15 16 17 18 19 20 21 22 23 24 25 26 27 28 29 30 31 32 33 34 35 36 37 38 39 40 41 42 43 44 45 46 47 48 49 50
000
ASUS43 KMKX 282359
RWRWI

WISCONSIN REGIONAL WEATHER ROUNDUP
NATIONAL WEATHER SERVICE MILWAUKEE/SULLIVAN WI
700 PM CDT SAT MAR 28 2015

NOTE: "FAIR" INDICATES FEW OR NO CLOUDS BELOW 12,000 FEET WITH NO
SIGNIFICANT WEATHER AND/OR OBSTRUCTIONS TO VISIBILITY.

WIZ001-002-006>008-014>016-023>028-290100-
NORTHWEST WISCONSIN

CITY           SKY/WX    TMP DP  RH WIND       PRES   REMARKS
SUPERIOR ARPT  PTCLDY    42  13  30 SW20      30.01F
ASHLAND        PTCLDY    40   9  28 S13G22    30.04F WCI  32
6HR MIN TEMP:  40; 6HR MAX TEMP:  46;

HAYWARD        CLEAR     39   9  29 S14       30.05F WCI  31
6HR MIN TEMP:  36; 6HR MAX TEMP:  42;

SIREN          CLEAR     40  12  32 S15       30.06F WCI  31
CUMBERLAND     CLEAR     36  14  41 S14G21    30.07F WCI  27
RICE LAKE      CLEAR     39  10  30 S12G20    30.11F WCI  32
CHETEK         CLEAR     38  11  33 S12G17    30.10F WCI  31
LADYSMITH      CLEAR     40  10  30 S12       30.11F WCI  32
EAU CLAIRE     NOT AVBL
MENOMONIE      CLEAR     38  13  34 S10       30.13F WCI  32
NEW RICHMOND   CLEAR     38  17  43 S15       30.10F WCI  29
OSCEOLA        CLEAR     40  19  44 S15       30.12F WCI  31
$$

WIZ003>005-009-010-017-018-290100-
NORTH CENTRAL WISCONSIN

CITY           SKY/WX    TMP DP  RH WIND       PRES   REMARKS
MANITOWISH WTR CLEAR     37   9  32 SW8G18    30.06S WCI  30
ARBOR VITAE    CLEAR     37  12  36 S13       30.07S WCI  28
WOODRUFF       CLEAR     37  12  36 S13       30.07S WCI  28
RHINELANDER    CLEAR     35  10  35 SW10      30.09F WCI  27
6HR MIN TEMP:  35; 6HR MAX TEMP:  40;

EAGLE RIVER    CLEAR     35   6  29 SW6       30.07F WCI  30
LAND O LAKES   CLEAR     36   8  30 S9G16     30.07F WCI  29
PHILLIPS       CLEAR     38  11  32 SW13      30.07F WCI  30
TOMAHAWK       CLEAR     36  10  34 CALM      30.11F
MEDFORD        CLEAR     37  13  38 S13       30.10F WCI  28
MERRILL        CLEAR     38  10  32 SW12      30.12F WCI  30
$$

WIZ029-030-035-036-043>047-290100-
CENTRAL WISCONSIN

CITY           SKY/WX    TMP DP  RH WIND       PRES   REMARKS
WAUSAU         CLEAR     37   9  31 SW13      30.11F WCI  29
6HR MIN TEMP:  35; 6HR MAX TEMP:  40;

MOSINEE        NOT AVBL
MARSHFIELD     CLEAR     37  11  34 S13       30.13F WCI  29
6HR MIN TEMP:  37; 6HR MAX TEMP:  42;

STEVENS POINT  CLEAR     37   7  28 S10       30.16S WCI  29
WAUPACA        CLEAR     41   7  24 S10       30.18F
WAUTOMA        NOT AVBL
WISC RAPIDS    CLEAR     38   7  27 S12       30.17F WCI  30
6HR MIN TEMP:  38; 6HR MAX TEMP:  42;

CAMP DOUGLAS   NOT AVBL
$$

WIZ011>013-019>022-031-037>040-048>050-290100-
NORTHEAST WISCONSIN

CITY           SKY/WX    TMP DP  RH WIND       PRES   REMARKS
ANTIGO         CLEAR     34  14  42 SW9       30.12F WCI  27
SHAWANO        CLEAR     40   8  26 S6        30.17F
OCONTO         CLEAR     36  17  44 S6        30.19F WCI  31
STURGEON BAY   CLEAR     28  21  74 S10       30.22F WCI  19
6HR MIN TEMP:  28; 6HR MAX TEMP:  34;

GREEN BAY      CLEAR     36  17  46 S8        30.20F WCI  30
6HR MIN TEMP:  34; 6HR MAX TEMP:  38;

MANITOWOC      NOT AVBL
APPLETON       CLEAR     37  10  32 S9        30.20F WCI  31
CLINTONVILLE   CLEAR     39   9  28 S8        30.18S WCI  34
OSHKOSH        CLEAR     36  14  40 SW9       30.20F WCI  29
6HR MIN TEMP:  34; 6HR MAX TEMP:  40;

$$

WIZ032>034-041-042-053>061-290100-
SOUTHWEST WISCONSIN

CITY           SKY/WX    TMP DP  RH WIND       PRES   REMARKS
LA CROSSE      CLEAR     40  14  34 S12       30.18F WCI  33
6HR MIN TEMP:  39; 6HR MAX TEMP:  43;

SPARTA         CLEAR     38   8  29 S6        30.19S WCI  33
VIROQUA        CLEAR     36  15  42 S7        30.17F WCI  31
BOSCOBEL       CLEAR     40  13  33 S6        30.20F
6HR MIN TEMP:  36; 6HR MAX TEMP:  41;

PRAIRIE DU CHI CLEAR     40  11  31 SE7       30.19F WCI  35
PLATTEVILLE    CLEAR     38  14  37 S12       30.21S WCI  30
$$

WIZ056-057-062-063-064-067-068-290100-
SOUTH CENTRAL WISCONSIN

CITY           SKY/WX    TMP DP  RH WIND       PRES   REMARKS
REEDSBURG      CLEAR     36  13  38 S10       30.20S WCI  29
BARABOO/DELLS  CLEAR     36   9  33 SW13      30.21S WCI  27
LONE ROCK      NOT AVBL
MINERAL POINT  CLEAR     37  14  38 S7        30.20F WCI  32
MADISON        PTCLDY    36  12  37 VRB5      30.22F WCI  32
6HR MIN TEMP:  34; 6HR MAX TEMP:  38;

MIDDLETON      CLEAR     38  11  32 S8        30.23S WCI  32
WATERTOWN      CLEAR     36  13  38 SW7       30.23S WCI  30
MONROE         CLEAR     36  18  48 S9        30.22S WCI  29
JANESVILLE     CLEAR     37  10  32 S7        30.23F WCI  32
$$

WIZ051-052-058>065-066-070>072-290100-
SOUTHEAST WISCONSIN

CITY           SKY/WX    TMP DP  RH WIND       PRES   REMARKS
MILWAUKEE      CLEAR     30  12  47 S12       30.26F WCI  20
6HR MIN TEMP:  30; 6HR MAX TEMP:  34;

WAUKESHA       CLEAR     34  16  47 SE12      30.24F WCI  25
MILWAUKEE/TIMM CLEAR     32  12  43 SE8       30.26F WCI  25
RACINE         CLEAR     29  14  53 S12       30.29F WCI  19
6HR MIN TEMP:  29; 6HR MAX TEMP:  33;

BURLINGTON     CLEAR     35  13  40 SW6       30.25S WCI  30
KENOSHA        CLEAR     29  13  51 SE7       30.27F WCI  22
6HR MIN TEMP:  29; 6HR MAX TEMP:  34;

FOND DU LAC    CLEAR     36  12  37 SW8       30.21F WCI  30
6HR MIN TEMP:  35; 6HR MAX TEMP:  40; 6HR PCP: TRACE;

SHEBOYGAN      CLEAR     29  18  63 S12G17    30.24F WCI  19
6HR MIN TEMP:  29; 6HR MAX TEMP:  37;

WEST BEND      CLEAR     32  16  51 SE10      30.23S WCI  24
JUNEAU         CLEAR     35  13  40 SW9       30.24S WCI  28
$$

LSZ147-162-290100-
LAKE SUPERIOR

STATION/POSITION TIME  TEMP    WIND        PRES    WAVE
                       AIR SEA DIR/SP/G            HT/PER
                 (UTC) (F)     (DEG/KT/KT) (MB)    (FT/S)
DEVILS ISLAND    2300   32      90/  9/  9 1018.7F
PORT WING        2300   44     200/ 11/ 19 1017.3F
SAXON HARBOR     2300   44     200/ 13/ 18 1017.6F
$$

LMZ867-665-643>646-290100-
LAKE MICHIGAN

STATION/POSITION TIME  TEMP    WIND        PRES    WAVE
                       AIR SEA DIR/SP/G            HT/PER
                 (UTC) (F)     (DEG/KT/KT) (MB)    (FT/S)
NORTHPORT PIER   2300   30     170/ 12/ 17 1023.0F
KEWAUNEE LAKESHO 2300   31     180/ 19/ 22 1023.0F
SHEBOYGAN LAKESH 2300   30     170/ 17/ 19 1025.8F
PORT WASHINGTON  2300   32     160/ 14/ 16 1025.7S
MILWAUKEE LAKESH 2300   29     150/ 16/ 18   N/A
KENOSHA   LAKESH 2300   29     160/ 12/ 14 1025.7S
$$

TC  - TEMPERATURE IN CELSIUS
VSB - VISIBILITY IN STATUTE MILES
WCI - WIND CHILL INDEX
HX  - HEAT INDEX



USA.gov is the U.S. government's official web portal to all federal, state and local government web resources and services.